Weather History for McCall, ID

Change the Weather History Date:

Monday, March 25, 2013

  Actual Average Record
Temperature  
Mean Temperature 27 °F 31 °F  
Max Temperature 42 °F 42 °F 60 °F (1992)
Min Temperature 11 °F 21 °F 3 °F (1965)
Degree Days  
Heating Degree Days 38 34  
Month to date heating degree days 907 918  
Since 1 July heating degree days 6936 7593  
Cooling Degree Days 0 0  
Month to date cooling degree days 0 0  
Year to date cooling degree days 0 0  
Moisture  
Dew Point 13 °F    
Average Humidity 59    
Maximum Humidity 84    
Minimum Humidity 34    
Precipitation  
Precipitation 0.00 in 0.08 in 1.00 in (1948)
Month to date precipitation 1.30 1.68  
Year to date precipitation 5.64 5.15  
Sea Level Pressure  
Sea Level Pressure 30.16 in    
Wind  
Wind Speed 1 mph (SSW)    
Max Wind Speed 6 mph    
Max Gust Speed 7 mph    
Visibility 10 miles    
Events      
T = Trace of Precipitation, MM = Missing Value Source: NWS Daily Summary

Daily Weather History Graph

Daily Weather History Graph

Search for Another Location

Airport:

Trip Planner

Search our weather history database for the weather conditions in past years. The results will help you decide how hot, cold, wet, or windy it might be!

Date:

Astronomy

Mar. 25, 2013 Rise Set
Actual Time 7:37 AM MDT 8:03 PM MDT
Civil Twilight 7:08 AM MDT 8:33 PM MDT
Nautical Twilight 6:33 AM MDT 9:07 PM MDT
Astronomical Twilight 5:57 AM MDT 9:43 PM MDT
Moon 6:38 PM MDT (3/25) 6:26 AM MDT (3/25)
Length of Visible Light 13h 24m
Length of Day
12h 26m
Waxing Gibbous, 97% of the Moon is Illuminated
Mar 25
Waxing Gibbous
Mar 27
Full
Apr 2
Last Quarter
Apr 10
New
Apr 18
First Quarter

Hourly Weather History & Observations

Time (MDT) Temp. Windchill Dew Point Humidity Pressure Visibility Wind Dir Wind Speed Gust Speed Precip Events Conditions
12:51 AM 18.0 °F 12.7 °F 9.0 °F 68% 30.25 in 10.0 mi NNW 3.5 mph - N/A   Clear
1:51 AM 17.1 °F - 9.0 °F 71% 30.23 in 10.0 mi Calm Calm - N/A   Clear
2:51 AM 15.1 °F - 8.1 °F 74% 30.23 in 10.0 mi Calm Calm - N/A   Clear
3:51 AM 12.9 °F - 7.0 °F 77% 30.22 in 10.0 mi Calm Calm - N/A   Clear
4:51 AM 12.0 °F - 6.1 °F 77% 30.22 in 10.0 mi Calm Calm - N/A   Clear
5:51 AM 12.0 °F - 7.0 °F 80% 30.22 in 10.0 mi Calm Calm - N/A   Overcast
6:51 AM 12.0 °F - 8.1 °F 84% 30.23 in 10.0 mi Calm Calm - N/A   Overcast
7:51 AM 12.9 °F - 8.1 °F 81% 30.23 in 10.0 mi Calm Calm - N/A   Scattered Clouds
8:51 AM 16.0 °F - 10.0 °F 77% 30.23 in 10.0 mi Calm Calm - N/A   Mostly Cloudy
9:51 AM 18.0 °F - 10.9 °F 74% 30.23 in 10.0 mi Calm Calm - N/A   Overcast
10:51 AM 23.0 °F - 12.0 °F 63% 30.21 in 10.0 mi Calm Calm - N/A   Mostly Cloudy
11:51 AM 26.1 °F 21.9 °F 14.0 °F 60% 30.21 in 10.0 mi South 3.5 mph - N/A   Mostly Cloudy
12:51 PM 28.9 °F 25.2 °F 14.0 °F 54% 30.19 in 10.0 mi South 3.5 mph - N/A   Mostly Cloudy
1:51 PM 32.0 °F - 12.9 °F 45% 30.17 in 10.0 mi Calm Calm - N/A   Overcast
2:51 PM 35.1 °F 31.0 °F 14.0 °F 42% 30.14 in 10.0 mi South 4.6 mph - N/A   Clear
3:51 PM 37.0 °F - 12.9 °F 37% 30.13 in 10.0 mi Calm Calm - N/A   Overcast
4:51 PM 37.0 °F - 14.0 °F 39% 30.11 in 10.0 mi Calm Calm - N/A   Overcast
5:51 PM 41.0 °F - 16.0 °F 36% 30.08 in 10.0 mi Calm Calm - N/A   Overcast
6:51 PM 39.9 °F - 18.0 °F 41% 30.06 in 10.0 mi Calm Calm - N/A   Mostly Cloudy
7:51 PM 37.9 °F - 19.9 °F 48% 30.06 in 10.0 mi Calm Calm - N/A   Overcast
8:51 PM 35.1 °F - 21.9 °F 59% 30.05 in 10.0 mi Calm Calm - N/A   Overcast
9:51 PM 33.1 °F - 21.9 °F 64% 30.05 in 10.0 mi Calm Calm - N/A   Overcast
10:51 PM 33.1 °F 30.0 °F 21.9 °F 64% 30.04 in 10.0 mi NNW 3.5 mph - N/A   Overcast
11:51 PM 34.0 °F 29.8 °F 21.0 °F 59% 30.02 in 10.0 mi NNE 4.6 mph - N/A   Overcast